Flag for Greenland Weather past 2 weeks in Danmarkshavn, Greenland

Now
46 °F

Sunny.


Feels Like: 40 °F
Forecast: 35 / 43 °F
Wind: 14 mph from Northwest

Location: Danmarkshavn

Current Time: Jul 1, 2015 at 12:34:27 PM

Latest Report: Jul 1, 2015 at 11:00 AM


Visibility: 28 mi

Pressure: 30.04 "Hg

Humidity: 66%

Dew point: 35 °F

Location of DanmarkshavnLocation

Historic Weather in Danmarkshavn — Graph

°F

Danmarkshavn temperature yesterday

Maximum temperature yesterday: 32 °F (at 10:00 PM)
Minimum temperature yesterday: 27 °F (at 7:00 AM)
Average temperature yesterday: 29 °F

Past Weeks' High & Low Weather Summary

 TemperatureHumidityPressure
High55 °F (Jun 25, 5:00 PM)99% (Jun 18, 10:00 PM)30.21 "Hg (Jun 18, 10:00 PM)
Low27 °F (Jun 20, 4:00 AM)39% (Jun 26, 6:00 PM)29.72 "Hg (Jun 17, 11:00 PM)
Average38 °F76%30.00 "Hg
* Reported Jun 16 11:00 AM — Jul 1 11:00 AM, Danmarkshavn, Weather by CustomWeather, © 2015

Note: Actual official high and low records may vary slightly from our data, if they occured in-between our weather recording intervals... More about our weather records

Advertising

Danmarkshavn weather history for previous 24 hours

 ConditionsComfort  
Time TempWeatherWind HumidityBarometerVisibility
11:00 AM
Wed, Jul 1
46 °FSunny.14 mph66%30.04 "Hg28 mi
10:00 AM46 °FPassing clouds.15 mph68%30.03 "Hg31 mi
9:00 AM40 °FSunny.16 mph74%30.02 "Hg31 mi
8:00 AM36 °FPassing clouds.18 mph84%30.01 "Hg28 mi
7:00 AM34 °FSunny.9 mph93%30.00 "Hg31 mi
6:00 AM33 °FPassing clouds.N/A93%29.98 "Hg28 mi
5:00 AM34 °FSunny.N/A90%29.98 "Hg31 mi
4:00 AM33 °FPassing clouds.N/A92%29.98 "Hg31 mi
3:00 AM31 °FScattered clouds.N/A95%29.98 "Hg28 mi
2:00 AM30 °FScattered clouds.N/A98%29.98 "Hg2 mi
1:00 AM31 °FIce fog.N/A98%29.99 "Hg1 mi
12:00 AM31 °FIce fog.N/A99%30.00 "Hg1 mi
11:00 PM
Tue, Jun 30
31 °FIce fog.N/A98%30.01 "Hg0 mi
10:00 PM32 °FScattered clouds.N/A97%30.02 "Hg31 mi
9:00 PM31 °FIce fog.N/A98%30.03 "Hg0 mi
8:00 PM31 °FIce fog.N/A99%30.03 "Hg0 mi
7:00 PM31 °FIce fog.N/A99%30.04 "Hg0 mi
6:00 PM31 °FIce fog.N/A98%30.06 "Hg1 mi
4:00 PM31 °FLow clouds.6 mph96%30.08 "Hg1 mi
2:00 PM30 °FIce fog.5 mph97%30.10 "Hg1 mi
1:00 PM30 °FIce fog.5 mph97%30.11 "Hg1 mi
12:00 PM30 °FIce fog.5 mph96%30.12 "Hg2 mi
Weather by CustomWeather, © 2015

See weather overviewHow to use our weather pages